Theta_e
321 320 318 317 316 315 314 311 309 309 309 310 310 310 308 306 305 304 304 304 304 303 304 304 304 305 305 306 307 307 306 306 304 307 308 309 305 307 311 312 314 313 314
316 314 313 313 312 310 308 308 308 307 307 308 309 306 305 304 303 302 302 302 301 300 302 302 303 307 304 305 304 304 304 305 304 304 307 309 309 310 309 308 310 312 312
314 312 310 310 309 308 307 307 308 308 308 307 305 304 303 302 301 300 300 300 299 300 301 302 303 305 307 309 307 307 308 307 305 304 304 306 306 308 308 309 309 310 313
312 311 310 309 308 307 307 306 306 307 306 305 304 303 301 300 299 299 299 297 298 300 301 303 306 307 306 302 302 301 301 299 300 300 301 302 303 304 305 304 304 307 307
309 308 307 306 306 305 305 304 304 304 304 305 303 301 299 298 298 297 297 297 296 299 304 305 307 308 305 302 298 297 297 296 296 297 297 299 299 300 300 303 302 304 306
307 305 306 305 304 303 302 301 300 300 301 302 301 298 296 298 297 298 299 295 297 300 301 303 306 301 298 297 298 299 298 296 295 295 296 296 297 299 300 300 301 299 298
306 305 304 303 302 301 300 300 298 297 297 299 301 300 297 296 296 296 298 295 296 297 298 301 298 296 295 295 295 297 297 298 299 297 295 296 297 298 299 298 299 299 300
303 303 302 301 300 298 297 296 297 296 298 302 301 300 298 296 295 295 296 294 295 296 297 295 295 295 295 294 293 294 294 295 296 297 297 297 298 299 299 300 300 300 301
301 300 300 300 298 297 295 294 295 295 297 301 299 297 295 292 294 293 294 292 293 294 297 296 296 294 294 294 293 292 293 294 298 299 299 298 297 297 299 302 301 300 299
299 299 299 299 298 295 295 297 297 295 292 295 297 297 296 290 293 293 293 293 292 294 295 295 297 294 293 293 293 292 291 292 294 296 298 300 302 304 304 305 303 299 300
299 298 296 294 292 291 290 290 290 289 289 289 292 294 293 293 291 292 292 290 292 292 294 294 295 294 293 292 293 293 292 293 295 296 298 300 303 305 308 305 305 303 301
296 295 293 291 291 289 287 286 287 287 286 286 288 290 291 291 291 291 291 292 293 290 294 294 294 293 292 292 293 292 293 295 295 295 297 298 300 304 306 305 305 305 306
294 291 291 291 289 287 285 284 285 285 285 285 287 286 287 288 289 291 291 292 294 292 295 295 292 291 292 293 293 293 294 294 293 293 294 296 300 305 306 306 305 305 306
292 290 289 287 286 286 285 284 284 283 285 284 282 282 283 285 286 289 290 291 293 292 293 290 292 291 291 291 291 293 293 294 293 293 295 297 302 305 303 303 304 304 303
293 290 288 286 285 284 284 283 283 285 284 285 285 283 282 283 286 290 289 289 289 290 290 288 287 286 286 286 288 290 291 291 290 292 294 296 299 303 303 302 302 303 302
291 290 287 286 286 286 284 285 289 289 289 288 288 288 287 288 289 289 289 289 289 289 289 286 284 284 284 284 284 286 288 288 289 290 293 295 297 301 300 300 300 300 298
290 289 289 289 288 285 286 286 285 289 291 289 289 289 289 289 289 289 289 289 288 288 286 285 284 283 283 283 283 284 285 286 288 289 291 293 296 301 301 298 298 298 297
292 292 288 287 288 287 288 287 287 287 287 288 289 289 289 289 289 289 289 289 288 287 285 284 283 282 282 282 282 282 283 284 285 287 289 291 294 300 301 300 297 296 296
291 290 288 286 285 288 288 287 286 285 283 283 285 287 289 289 289 289 289 288 287 286 285 283 283 282 281 281 281 282 282 282 284 285 287 290 293 298 299 301 300 293 293
289 290 289 287 286 285 284 284 283 283 283 283 285 284 286 287 287 287 287 286 285 285 284 282 282 281 281 280 281 281 281 281 282 284 285 288 291 297 298 299 300 299 297
285 286 287 284 284 284 283 283 283 282 282 282 283 285 284 286 286 287 287 285 284 283 283 282 280 280 280 280 280 280 280 280 281 282 284 286 291 292 298 298 298 300 299
285 284 284 283 283 283 282 283 282 282 282 282 283 285 285 286 286 286 287 286 285 284 283 282 280 280 280 279 279 279 279 279 280 281 283 285 289 290 295 297 297 297 298
286 286 285 284 283 284 283 282 282 281 281 282 283 283 284 284 285 285 286 286 286 285 283 281 280 279 279 280 280 279 278 279 279 281 282 285 288 288 291 295 295 296 296
286 285 284 283 283 281 281 281 281 283 282 282 282 283 282 284 284 285 285 286 285 285 284 282 280 279 279 279 280 280 280 280 281 281 283 284 285 287 289 294 294 294 295
286 285 284 283 282 281 281 281 281 281 283 283 282 281 281 282 283 284 284 284 284 284 284 282 281 280 279 279 279 280 280 281 281 282 283 283 283 285 287 289 293 292 293
285 285 283 282 281 281 280 281 281 281 281 281 281 280 280 280 281 283 283 283 282 282 282 282 282 281 280 279 280 280 280 280 281 281 282 282 282 283 284 286 287 291 291
Wind_Speed
15 13 14 14 13 13 11 9 8 8 7 8 7 9 10 9 9 8 7 7 7 6 6 6 6 6 4 5 5 4 4 5 10 9 7 8 5 8 11 11 11 12 11
14 14 13 15 12 13 10 8 7 8 7 8 10 10 10 10 8 9 8 7 7 7 7 7 8 7 8 6 4 6 5 5 6 14 11 10 12 13 11 11 11 11 11
15 14 13 13 13 12 10 10 11 12 11 11 10 10 10 9 9 8 7 7 7 6 7 7 8 8 8 6 7 7 6 7 9 10 12 10 11 11 12 12 11 11 9
14 14 14 13 14 12 11 11 11 10 11 10 8 8 8 8 8 8 8 7 7 7 6 6 8 9 7 8 8 9 9 10 10 10 12 11 11 11 9 9 9 7 9
15 15 14 13 13 12 12 10 10 10 7 7 7 7 6 9 8 9 8 7 6 7 7 8 9 7 15 15 10 11 12 10 9 9 10 9 10 9 9 8 9 8 8
16 15 13 14 13 11 9 8 9 7 7 7 7 8 7 7 14 16 11 6 7 8 8 8 8 13 17 21 20 20 15 11 11 9 10 10 12 11 9 9 9 8 5
15 14 14 13 11 9 8 9 8 7 7 6 6 7 8 8 15 17 17 6 7 8 9 9 9 10 14 13 17 17 13 15 14 11 12 12 14 14 13 13 12 9 8
15 14 12 12 11 9 9 8 8 5 6 6 7 6 6 7 17 19 18 8 7 7 6 8 9 11 13 16 14 14 13 11 10 9 10 13 13 14 13 13 13 10 7
13 12 11 10 10 9 8 7 6 7 7 6 7 7 7 7 16 18 14 7 6 6 6 7 10 12 20 22 13 15 17 16 16 19 18 18 19 20 16 7 6 7 4
12 12 10 9 10 10 8 8 8 6 5 5 7 5 10 6 12 15 15 5 7 7 7 8 14 17 20 19 12 12 13 14 16 18 17 17 15 14 14 6 6 7 5
12 12 12 11 11 8 8 7 6 5 7 6 7 7 7 9 10 16 15 6 6 6 7 9 9 21 20 17 15 11 11 14 15 11 10 10 10 11 6 5 7 6 3
13 13 12 11 9 7 7 6 5 6 6 6 6 6 6 9 12 14 17 14 11 4 7 8 10 18 18 15 14 18 17 15 10 10 10 10 12 11 10 4 6 5 4
12 11 10 10 9 8 7 5 4 5 6 6 6 6 7 7 7 16 16 16 10 4 6 9 14 15 16 13 19 20 18 11 11 10 11 10 12 10 11 9 4 4 3
12 11 9 9 8 6 4 4 5 6 7 6 6 7 6 6 7 8 8 8 10 8 8 8 12 13 14 13 13 13 10 10 10 10 11 11 10 9 9 9 5 3 2
10 8 7 5 5 4 4 3 3 3 3 5 5 3 5 7 7 8 8 8 7 7 7 7 11 12 13 13 12 13 12 13 13 12 11 13 11 11 8 9 8 7 5
8 5 4 4 3 3 3 3 4 4 5 6 7 6 5 9 14 13 13 14 15 14 7 9 10 10 10 11 12 13 12 15 13 13 12 13 13 10 10 9 8 6 7
7 6 5 6 5 4 3 4 4 5 6 4 3 7 9 9 14 15 14 12 14 10 9 10 9 9 9 10 10 11 12 12 13 11 11 12 13 12 9 9 9 8 7
7 10 5 4 4 3 3 3 3 4 4 5 6 4 5 9 11 14 15 9 10 11 10 10 9 9 9 10 10 11 11 12 12 12 13 13 13 12 10 9 9 9 8
6 5 5 4 3 4 3 4 5 5 5 4 5 6 6 9 11 9 10 6 8 9 9 9 9 9 9 9 9 10 11 11 12 12 12 12 13 13 13 11 8 9 8
6 9 6 4 3 3 2 4 4 5 5 5 6 5 5 6 6 8 8 6 7 9 9 9 9 8 9 9 10 10 11 12 13 12 12 12 12 12 12 13 11 9 9
5 6 8 5 4 4 4 5 4 5 4 4 4 5 7 6 7 7 6 6 6 8 8 9 9 9 9 9 10 10 11 11 12 12 12 12 12 12 12 11 11 10 8
5 5 5 5 5 5 5 5 5 5 5 5 5 7 9 7 7 7 7 7 5 6 6 7 8 8 9 9 10 10 11 12 12 12 13 12 12 12 11 12 12 9 9
6 6 5 5 5 7 7 5 5 5 5 5 5 5 6 6 7 7 7 6 6 5 6 7 9 9 9 9 9 9 10 11 11 11 12 12 12 12 11 11 11 11 10
6 6 6 5 5 5 5 5 5 6 5 5 5 5 6 6 6 8 7 6 5 6 5 7 8 11 10 10 10 10 10 11 10 11 13 11 11 13 11 11 12 13 10
7 7 7 5 5 5 5 5 5 5 5 5 6 5 5 5 7 7 7 6 7 7 9 6 7 11 12 15 16 18 18 20 16 17 11 12 13 15 13 11 11 11 11
7 7 5 5 5 5 5 5 5 5 5 5 5 5 5 5 5 6 6 7 7 7 8 8 8 13 15 12 16 18 19 20 18 19 12 11 11 11 11 13 15 9 12
Wind_Direction
90 89 90 81 71 74 74 72 75 77 67 67 64 62 59 47 36 38 20 13 3 352 352 348 330 317 318 307 304 306 304 293 298 306 297 302 288 278 281 280 279 282 281
96 91 83 87 82 78 72 69 61 62 51 54 69 65 58 46 33 30 11 1 354 350 339 342 336 331 321 312 317 305 300 296 305 307 303 297 293 294 287 285 287 286 282
93 92 90 91 88 76 65 57 55 61 64 67 70 65 54 42 27 14 359 347 347 338 337 336 320 326 329 344 333 322 316 308 294 293 297 298 291 289 295 289 289 289 288
96 93 88 80 76 77 72 64 60 57 61 60 63 62 56 43 24 2 354 348 343 340 323 318 323 342 9 350 335 318 308 301 298 293 294 293 290 300 293 290 297 300 296
93 83 84 80 79 73 66 63 62 62 60 68 75 60 49 37 12 2 348 342 335 326 341 338 335 14 352 343 330 319 312 304 300 298 293 297 298 304 303 304 290 290 286
91 88 84 78 73 73 73 69 66 57 53 61 72 68 45 30 3 7 4 335 340 339 337 339 353 3 343 343 334 322 315 307 304 300 298 297 296 303 303 295 295 296 298
89 87 81 80 78 70 65 63 58 55 47 50 83 68 51 24 5 5 7 359 345 352 346 12 354 349 346 338 329 325 322 319 308 299 295 295 297 297 297 291 287 280 275
84 83 84 82 74 64 59 55 46 33 41 59 61 60 43 26 12 11 0 358 352 339 6 3 355 349 350 346 337 338 334 330 327 318 297 290 287 288 284 282 280 273 272
86 87 84 82 77 67 59 55 48 45 35 58 68 49 31 15 13 9 1 346 323 336 14 2 360 355 349 348 347 343 340 334 333 325 308 294 286 283 277 287 301 287 276
87 83 74 67 69 60 45 45 56 48 28 35 53 51 33 10 9 7 3 339 350 359 1 -0 0 1 348 342 349 348 336 333 329 331 334 333 327 315 305 317 308 317 318
81 74 69 68 64 56 52 40 39 32 42 27 37 21 21 10 357 355 357 356 -0 339 2 359 356 353 342 336 348 351 335 320 330 328 325 325 331 326 323 333 334 334 332
82 79 73 65 63 58 58 38 32 36 42 31 26 20 5 1 355 345 349 358 343 343 3 357 350 343 335 339 353 342 349 352 348 344 339 337 336 334 341 334 329 336 341
85 79 73 73 67 54 52 32 40 36 46 35 28 19 359 352 348 351 349 350 1 12 6 355 350 352 348 354 355 357 359 354 348 345 338 335 328 327 341 348 311 336 7
93 84 77 76 64 50 51 44 56 50 60 53 33 20 347 348 357 352 360 1 358 24 14 356 4 6 5 357 359 2 360 351 345 339 334 331 328 336 357 352 337 326 347
92 95 87 82 79 72 60 62 52 69 71 50 36 9 5 1 341 334 21 12 360 356 9 13 18 10 5 360 358 356 357 355 353 344 339 339 341 350 6 356 358 -0 8
106 100 104 104 100 83 71 63 44 48 33 33 33 35 14 18 3 13 12 8 7 1 27 29 21 9 4 356 353 348 353 353 349 341 342 345 343 1 7 5 2 10 10
110 111 109 103 93 81 50 56 51 359 22 19 357 9 22 11 7 11 3 358 7 19 33 31 22 9 358 354 353 351 346 345 338 340 346 349 342 351 16 10 7 5 9
122 122 106 100 104 95 58 56 46 44 33 21 5 6 330 339 356 6 2 5 27 33 34 26 17 5 358 354 351 349 344 343 347 347 348 349 346 354 354 18 13 8 9
107 101 114 117 109 86 61 42 36 44 36 23 9 19 3 321 322 353 3 36 30 31 25 24 14 6 359 353 349 347 346 345 343 345 349 349 344 358 360 1 19 11 12
92 117 103 107 100 92 78 79 66 51 37 28 32 13 8 13 21 29 33 31 32 32 27 22 12 6 1 356 353 350 349 351 348 350 347 346 346 357 1 359 1 18 18
83 87 108 88 91 94 87 84 75 71 53 34 18 23 21 39 28 30 33 35 42 33 26 20 14 10 3 360 358 355 352 349 348 345 344 345 347 351 1 4 4 6 15
82 80 75 78 72 65 69 67 61 59 55 45 18 21 22 34 30 28 37 38 34 37 32 22 17 13 5 2 357 355 354 349 346 344 340 340 347 353 354 6 7 8 13
93 93 82 74 87 79 64 61 66 58 54 50 36 30 29 29 27 27 29 39 35 36 27 29 21 15 8 4 1 357 353 348 336 334 335 339 347 352 345 8 8 7 9
73 73 82 71 61 71 75 65 61 59 54 48 43 37 30 26 23 23 21 24 33 36 33 28 23 19 7 6 2 358 353 349 342 341 340 348 350 353 353 6 10 11 9
70 76 76 75 75 75 75 69 61 60 57 49 44 34 21 22 21 18 17 23 24 21 25 26 24 15 10 4 2 359 354 355 357 353 349 356 357 360 1 2 4 8 12
77 74 73 75 73 70 72 71 70 66 66 57 50 38 30 26 20 22 23 24 21 20 19 15 15 16 10 5 1 359 358 358 359 358 358 360 0 0 356 3 3 8 13